Retour au catalogue

FENGYUN 1C DEB

ActifSSO
NORAD 30120·DEBRIS·🇨🇳 China

Lancé May 10, 1999 depuis Taiyuan Satellite Launch Center

Loading…

Prochains Passages (prochaines 24 heures)

TLE

FraisSource: Space-Track

Époque: Sep 13, 2026, 11:36 UTC

1 30120U 99025RZ  26256.48392655  .00002578  00000-0  10045-2 0  9998
2 30120  98.8439 347.2024 0062391 132.8489 289.2182 14.29533759 12910

Suivez FENGYUN 1C DEB en temps réel avec AllMySat

Download on the App Store